Location: Newark
(40.9833°N, 0.0333°W)
Time: 03:31:08
(UTC+00:00)

Transit 2A Rocket - Pass Details

Date: 01 November 2020
Orbit: 588 x 914 km, 66.7° (Epoch: 26 November)

Event Time Altitude Azimuth Distance (km) Brightness Sun altitude
Rises 09:36:56 0° 238° (WSW) 3,539 8.4 27.1°
Reaches altitude 10° 09:39:46 10° 248° (WSW) 2,596 7.7 27.4°
Maximum altitude 09:45:07 32° 310° (NW) 1,498 6.3 28.0°
Drops below altitude 10° 09:50:20 10° 13° (NNE) 2,510 7.4 28.5°
Sets 09:53:02 0° 23° (NNE) 3,405 8.0 28.8°
